Find Starlink 5018

NORAD ID: 53929 Int'l Des: 2022-119 Owner: SPXS Country: US Constellation: starlink operational
LEOCIRCULAR

当前视图

正在加载3D地球...

About Starlink 5018

Starlink 5018 (NORAD 53929) is a starlink constellation satellite (v1.5) launched Sep 24, 2022 by SPXS of US. It operates in LEO, CIRCULAR orbit with a mass of 305.00 kg.

关于 Starlink 5018

正在加载描述...

即将过境

Passes for default location (London). Set your location on the main map for personalized predictions.

高度历史

Loading altitude history...

两行轨道根数

1 53929U 22119AV 26173.37730130 -.00000340 00000-0 -33021-5 0 9999
2 53929 53.1589 204.4067 0001242 79.2035 280.9096 15.08829788207626
Epoch: Jun 22, 2026 • Age: 31 hours

当前状态

高度 544.3 km
速度 7.60 km/s
星下点 47.38°N, 176.33°E
发射日期 Sep 24, 2022
运行时间 3.7 years
类型 internet

技术详情

分类 Payload
质量 305.00 kg
干质量 290.00 kg
总质量 305.00 kg
长度 0.20 m
直径 2.80 m
跨度 9.00 m
形状 Box + pan
制造商 SPXS
平台类型 Starlink
阶段状态 In Orbit
所有者/国家 SPXS/US

Most Searched